When you browse on this site, cookies collect data to enhance your experience and personalize the content and advertising you see.
Visit our Privacy Policy to learn more. By continuing to use the site, you agree to this use of cookies and data.
  • în România
  • Lista ţărilor
  • Pe 7 zile
  • Temperatura apei
  • Meteo pe hartă
  • Widget-uri
  • user-avatar
    Intrare

    Meteo pe oră la Barcelona

    Astăzi, 24 Ianuarie, Vineri

    Timp Temperatura Precipitaţii Vânt Presiune Umiditate
    00:00 +25°C° 0 mm 3 m/s 758 mmHg 89%
    01:00 +25°C° 0 mm 3 m/s 758 mmHg 90%
    02:00 +24°C° 0 mm 2 m/s 757 mmHg 92%
    03:00 +24°C° 0 mm 2 m/s 757 mmHg 93%
    04:00 +24°C° 0 mm 2 m/s 757 mmHg 94%
    05:00 +24°C° 0 mm 2 m/s 757 mmHg 94%
    06:00 +24°C° 0 mm 1 m/s 758 mmHg 91%
    07:00 +25°C° 0 mm 1 m/s 758 mmHg 88%
    08:00 +26°C° 0 mm 1 m/s 759 mmHg 82%
    09:00 +28°C° 0 mm 1 m/s 759 mmHg 74%
    10:00 +31°C° 0 mm 1 m/s 760 mmHg 66%
    11:00 +34°C° 0 mm 2 m/s 760 mmHg 57%
    12:00 +34°C° 0 mm 2 m/s 759 mmHg 57%
    13:00 +34°C° 0 mm 3 m/s 758 mmHg 56%
    14:00 +34°C° 0 mm 3 m/s 757 mmHg 55%
    15:00 +33°C° 0 mm 3 m/s 757 mmHg 61%
    16:00 +30°C° 0 mm 3 m/s 757 mmHg 66%
    17:00 +29°C° 0 mm 4 m/s 756 mmHg 72%
    18:00 +28°C° 0 mm 4 m/s 757 mmHg 77%
    19:00 +27°C° 0 mm 4 m/s 757 mmHg 82%
    20:00 +26°C° 0 mm 4 m/s 758 mmHg 86%
    21:00 +26°C° 0 mm 4 m/s 758 mmHg 86%
    22:00 +26°C° 0 mm 4 m/s 759 mmHg 86%
    23:00 +25°C° 0 mm 4 m/s 759 mmHg 87%

    Mâine, 25 Ianuarie, Sâmbătă

    Timp Temperatura Precipitaţii Vânt Presiune Umiditate
    00:00 +25°C° 0 mm 3 m/s 759 mmHg 88%
    01:00 +25°C° 0 mm 3 m/s 758 mmHg 90%
    02:00 +25°C° 0 mm 3 m/s 758 mmHg 91%
    03:00 +24°C° 0 mm 2 m/s 758 mmHg 92%
    04:00 +24°C° 0 mm 2 m/s 758 mmHg 93%
    05:00 +24°C° 0 mm 2 m/s 758 mmHg 93%
    06:00 +25°C° 0 mm 1 m/s 759 mmHg 90%
    07:00 +25°C° 0 mm 1 m/s 759 mmHg 86%
    08:00 +26°C° 0 mm 1 m/s 760 mmHg 83%
    09:00 +29°C° 0 mm 1 m/s 760 mmHg 74%
    10:00 +31°C° 0 mm 1 m/s 760 mmHg 65%
    11:00 +33°C° 0 mm 1 m/s 760 mmHg 56%
    12:00 +34°C° 0 mm 2 m/s 759 mmHg 58%
    13:00 +33°C° 0 mm 3 m/s 759 mmHg 61%
    14:00 +33°C° 0 mm 3 m/s 758 mmHg 63%
    15:00 +31°C° 0 mm 3 m/s 757 mmHg 67%
    16:00 +30°C° 0 mm 3 m/s 757 mmHg 71%
    17:00 +29°C° 0 mm 3 m/s 757 mmHg 75%
    18:00 +28°C° 0 mm 3 m/s 757 mmHg 80%
    19:00 +27°C° 0 mm 3 m/s 757 mmHg 84%
    20:00 +26°C° 0 mm 3 m/s 758 mmHg 89%
    21:00 +26°C° 0 mm 2 m/s 758 mmHg 90%
    22:00 +26°C° 0 mm 2 m/s 759 mmHg 90%
    23:00 +26°C° 0 mm 2 m/s 759 mmHg 91%

    Poimâine, 26 Ianuarie, Duminică

    Timp Temperatura Precipitaţii Vânt Presiune Umiditate
    00:00 +25°C° 0 mm 2 m/s 759 mmHg 92%
    01:00 +25°C° 0 mm 1 m/s 758 mmHg 93%
    02:00 +25°C° 0 mm 1 m/s 758 mmHg 94%
    03:00 +25°C° 0 mm 1 m/s 758 mmHg 94%
    04:00 +24°C° 0 mm 1 m/s 758 mmHg 95%
    05:00 +24°C° 0 mm 1 m/s 758 mmHg 95%
    06:00 +25°C° 0 mm 1 m/s 758 mmHg 92%
    07:00 +25°C° 0 mm 1 m/s 759 mmHg 88%
    08:00 +26°C° 0 mm 1 m/s 759 mmHg 85%
    09:00 +29°C° 0 mm 1 m/s 760 mmHg 73%
    10:00 +31°C° 0 mm 2 m/s 760 mmHg 61%
    11:00 +35°C° 0 mm 2 m/s 760 mmHg 49%
    12:00 +35°C° 0 mm 2 m/s 759 mmHg 50%
    13:00 +35°C° 0 mm 2 m/s 759 mmHg 51%
    14:00 +35°C° 0 mm 3 m/s 758 mmHg 52%
    15:00 +34°C° 0.1 mm 3 m/s 758 mmHg 58%
    16:00 +31°C° 0.1 mm 3 m/s 757 mmHg 63%
    17:00 +30°C° 0.1 mm 3 m/s 757 mmHg 68%
    18:00 +29°C° 0 mm 3 m/s 757 mmHg 73%
    19:00 +28°C° 0 mm 3 m/s 758 mmHg 77%
    20:00 +26°C° 0 mm 3 m/s 758 mmHg 82%
    21:00 +26°C° 0 mm 3 m/s 759 mmHg 84%
    22:00 +26°C° 0 mm 3 m/s 759 mmHg 85%
    23:00 +25°C° 0 mm 3 m/s 759 mmHg 87%

    27 Ianuarie, Luni

    Timp Temperatura Precipitaţii Vânt Presiune Umiditate
    00:00 +25°C° 0 mm 3 m/s 759 mmHg 89%
    01:00 +25°C° 0 mm 2 m/s 759 mmHg 90%
    02:00 +24°C° 0 mm 2 m/s 758 mmHg 92%
    03:00 +24°C° 0 mm 2 m/s 758 mmHg 92%
    04:00 +24°C° 0 mm 2 m/s 758 mmHg 93%
    05:00 +24°C° 0 mm 2 m/s 758 mmHg 93%
    06:00 +24°C° 0 mm 1 m/s 759 mmHg 90%
    07:00 +25°C° 0 mm 1 m/s 759 mmHg 86%
    08:00 +25°C° 0 mm 1 m/s 760 mmHg 83%
    09:00 +28°C° 0 mm 1 m/s 760 mmHg 72%
    10:00 +30°C° 0 mm 1 m/s 760 mmHg 60%
    11:00 +33°C° 0 mm 1 m/s 760 mmHg 49%
    12:00 +34°C° 0 mm 1 m/s 760 mmHg 46%
    13:00 +35°C° 0 mm 2 m/s 759 mmHg 44%
    14:00 +36°C° 0 mm 2 m/s 758 mmHg 41%
    15:00 +34°C° 0 mm 2 m/s 757 mmHg 49%
    16:00 +31°C° 0 mm 3 m/s 757 mmHg 57%
    17:00 +29°C° 0 mm 3 m/s 756 mmHg 64%
    18:00 +28°C° 0 mm 3 m/s 757 mmHg 70%
    19:00 +27°C° 0 mm 4 m/s 758 mmHg 76%
    20:00 +26°C° 0 mm 4 m/s 758 mmHg 81%
    21:00 +26°C° 0 mm 4 m/s 758 mmHg 85%
    22:00 +26°C° 0 mm 3 m/s 759 mmHg 88%
    23:00 +25°C° 0 mm 3 m/s 759 mmHg 91%

    28 Ianuarie, Marţi

    Timp Temperatura Precipitaţii Vânt Presiune Umiditate
    00:00 +25°C° 0 mm 3 m/s 759 mmHg 92%
    01:00 +25°C° 0 mm 2 m/s 758 mmHg 92%
    02:00 +25°C° 0 mm 2 m/s 758 mmHg 93%
    03:00 +24°C° 0 mm 1 m/s 758 mmHg 94%
    04:00 +24°C° 0 mm 1 m/s 758 mmHg 94%
    05:00 +24°C° 0 mm 1 m/s 758 mmHg 95%
    06:00 +25°C° 0 mm 1 m/s 758 mmHg 92%
    07:00 +26°C° 0 mm 1 m/s 759 mmHg 88%
    08:00 +26°C° 0 mm 1 m/s 759 mmHg 84%
    09:00 +29°C° 0 mm 1 m/s 759 mmHg 73%
    10:00 +32°C° 0 mm 1 m/s 759 mmHg 62%
    11:00 +35°C° 0 mm 1 m/s 760 mmHg 50%
    12:00 +35°C° 0 mm 2 m/s 759 mmHg 53%
    13:00 +35°C° 0 mm 3 m/s 758 mmHg 56%
    14:00 +34°C° 0 mm 4 m/s 757 mmHg 58%
    15:00 +33°C° 0 mm 4 m/s 757 mmHg 63%
    16:00 +32°C° 0 mm 4 m/s 756 mmHg 67%
    17:00 +30°C° 0 mm 4 m/s 756 mmHg 72%
    18:00 +29°C° 0 mm 3 m/s 756 mmHg 75%
    19:00 +28°C° 0 mm 3 m/s 757 mmHg 77%
    20:00 +27°C° 0 mm 3 m/s 757 mmHg 80%
    21:00 +26°C° 0 mm 3 m/s 758 mmHg 83%
    22:00 +26°C° 0 mm 3 m/s 758 mmHg 86%
    23:00 +26°C° 0 mm 3 m/s 758 mmHg 89%

    29 Ianuarie, Miercuri

    Timp Temperatura Precipitaţii Vânt Presiune Umiditate
    00:00 +26°C° 0 mm 2 m/s 758 mmHg 90%
    01:00 +25°C° 0 mm 2 m/s 758 mmHg 91%
    02:00 +25°C° 0 mm 1 m/s 757 mmHg 92%
    03:00 +25°C° 0 mm 1 m/s 757 mmHg 93%
    04:00 +25°C° 0 mm 1 m/s 757 mmHg 93%
    05:00 +25°C° 0 mm 1 m/s 757 mmHg 93%
    06:00 +25°C° 0 mm 1 m/s 758 mmHg 89%
    07:00 +26°C° 0 mm 1 m/s 758 mmHg 84%
    08:00 +27°C° 0 mm 1 m/s 759 mmHg 79%
    09:00 +29°C° 0 mm 1 m/s 759 mmHg 70%
    10:00 +32°C° 0 mm 2 m/s 759 mmHg 61%
    11:00 +35°C° 0 mm 2 m/s 759 mmHg 51%
    12:00 +35°C° 0 mm 3 m/s 758 mmHg 53%
    13:00 +35°C° 0 mm 3 m/s 757 mmHg 55%
    14:00 +34°C° 0 mm 3 m/s 757 mmHg 56%
    15:00 +33°C° 0.1 mm 3 m/s 756 mmHg 61%
    16:00 +31°C° 0.1 mm 3 m/s 756 mmHg 66%
    17:00 +30°C° 0.1 mm 3 m/s 756 mmHg 71%
    18:00 +29°C° 0 mm 3 m/s 756 mmHg 74%
    19:00 +28°C° 0 mm 3 m/s 757 mmHg 78%
    20:00 +27°C° 0 mm 3 m/s 757 mmHg 82%
    21:00 +27°C° 0.1 mm 3 m/s 758 mmHg 83%
    22:00 +26°C° 0.1 mm 2 m/s 758 mmHg 85%
    23:00 +26°C° 0.1 mm 2 m/s 758 mmHg 86%
    Arată mai mult